EW3619 Weather Reports


Display with metric or nautical units.
time (UTC)temp
F
wind
direction
speed
MPH
gust
MPH
rain 1hr
in
rain 24hr
in
rain mn
in
humidity
%
barometer
mb
20260509191502 80 208 7.0 10.0 0.00 0.00 0.00 1 1011.5
20260509190100 79 266 5.0 11.0 0.00 0.00 0.00 1 1011.6
20260509184643 78 215 4.0 9.0 0.00 0.00 0.00 1 1011.6
20260509183053 77 173 4.0 9.0 0.00 0.00 0.00 1 1011.8
20260509181548 76 174 5.0 10.0 0.00 0.00 0.00 1 1011.7
20260509180041 76 180 4.0 8.0 0.00 0.00 0.00 1 1011.9
20260509174537 76 182 1.0 9.0 0.00 0.00 0.00 1 1012.1
20260509173031 76 203 2.0 6.0 0.00 0.00 0.00 1 1012.0
20260509171527 74 101 3.0 6.0 0.00 0.00 0.00 1 1012.0
20260509170023 73 131 1.0 6.0 0.00 0.00 0.00 1 1012.2
20260509164518 70 120 2.0 6.0 0.00 0.00 0.00 1 1012.2
20260509163013 68 103 3.0 6.0 0.00 0.00 0.00 1 1012.4
20260509161510 66 116 2.0 6.0 0.00 0.00 0.00 1 1012.7
20260509160005 63 122 0.0 4.0 0.00 0.00 0.00 1 1012.6
20260509154502 61 61 0.0 4.0 0.00 0.00 0.00 1 1012.7
20260509153059 61 71 0.0 3.0 0.00 0.00 0.00 1 1012.6
20260509151555 60 101 0.0 3.0 0.00 0.00 0.00 1 1012.5
20260509150053 60 202 0.0 3.0 0.00 0.00 0.00 1 1012.7
20260509144544 60 163 0.0 4.0 0.00 0.00 0.00 1 1012.7
20260509143047 60 65 3.0 5.0 0.00 0.00 0.00 1 1012.5
20260509141541 60 114 1.0 3.0 0.00 0.00 0.00 1 1012.6
20260509140030 60 161 1.0 3.0 0.00 0.00 0.00 1 1012.5
20260509134525 60 332 1.0 3.0 0.00 0.00 0.00 1 1012.6
20260509133021 60 339 1.0 5.0 0.00 0.00 0.00 1 1012.1
20260509131518 60 91 0.0 2.0 0.00 0.00 0.00 1 1012.2
20260509130012 60 314 1.0 3.0 0.00 0.00 0.00 1 1012.4
20260509124509 60 313 1.0 3.0 0.00 0.00 0.00 1 1012.3
20260509123008 60 313 2.0 4.0 0.00 0.00 0.00 1 1012.4
20260509121503 60 329 2.0 4.0 0.00 0.00 0.00 1 1012.2
20260509120004 60 5 0.0 2.0 0.00 0.00 0.00 1 1012.1
20260509114503 60 5 1.0 4.0 0.00 0.00 0.00 1 1012.2
20260509113122 60 5 1.0 4.0 0.00 0.00 0.00 1 1012.2
20260509111601 60 360 2.0 4.0 0.00 0.00 0.00 1 1012.3
20260509110151 60 330 1.0 3.0 0.00 0.00 0.00 1 1012.3
20260509104555 60 321 2.0 3.0 0.00 0.00 0.00 1 1012.2
20260509103050 60 40 0.0 3.0 0.00 0.00 0.00 1 1012.3
20260509101536 60 53 0.0 1.0 0.00 0.00 0.00 1 1012.5
20260509100038 60 53 1.0 3.0 0.00 0.00 0.00 1 1012.5
20260509094530 60 308 1.0 2.0 0.00 0.00 0.00 1 1012.4
20260509093023 60 308 0.0 2.0 0.00 0.00 0.00 1 1012.6
20260509091518 60 308 0.0 2.0 0.00 0.00 0.00 1 1012.7
20260509090014 59 308 0.0 3.0 0.00 0.00 0.00 1 1012.8
20260509084510 59 308 0.0 3.0 0.00 0.00 0.00 1 1012.9
20260509083005 59 307 1.0 3.0 0.00 0.00 0.00 1 1012.9
20260509081501 59 308 0.0 3.0 0.00 0.00 0.00 1 1013.1
20260509080100 58 309 2.0 4.0 0.00 0.00 0.00 1 1013.1
20260509074554 58 313 2.0 4.0 0.00 0.00 0.00 1 1013.3
20260509073054 57 304 2.0 4.0 0.00 0.00 0.00 1 1013.2
20260509071546 56 300 3.0 4.0 0.00 0.00 0.00 1 1013.5
20260509070040 56 327 1.0 3.0 0.00 0.00 0.00 1 1013.5
20260509064535 56 327 1.0 4.0 0.00 0.00 0.00 1 1013.6
20260509063035 56 312 2.0 4.0 0.00 0.00 0.00 1 1013.6
20260509061538 56 311 1.0 3.0 0.00 0.00 0.00 1 1013.5
20260509060022 56 306 2.0 4.0 0.00 0.00 0.00 1 1013.7
20260509054518 57 334 1.0 3.0 0.00 0.00 0.00 1 1013.6
20260509053027 58 305 0.0 3.0 0.00 0.00 0.00 1 1013.8
20260509051509 58 305 0.0 0.0 0.00 0.00 0.00 1 1013.9
20260509050008 58 305 1.0 3.0 0.00 0.00 0.00 1 1013.9
20260509044601 58 28 0.0 0.0 0.00 0.00 0.00 1 1013.7
20260509043100 59 28 0.0 2.0 0.00 0.00 0.00 1 1013.7
20260509041657 59 37 0.0 2.0 0.00 0.00 0.00 1 1013.6
20260509040058 59 47 2.0 5.0 0.00 0.00 0.00 1 1013.5
20260509034602 59 289 4.0 8.0 0.00 0.00 0.00 1 1013.4
20260509033055 59 263 5.0 11.0 0.00 0.00 0.00 1 1013.1
20260509031548 59 246 7.0 12.0 0.00 0.00 0.00 1 1013.1
20260509030044 60 250 5.0 11.0 0.00 0.00 0.00 1 1012.9
20260509024539 62 257 6.0 12.0 0.00 0.00 0.00 1 1012.6
20260509023036 64 274 4.0 9.0 0.00 0.00 0.00 1 1012.5
20260509021530 66 246 4.0 9.0 0.00 0.00 0.00 1 1012.4
20260509020034 69 240 4.0 10.0 0.00 0.00 0.00 1 1012.1
20260509014521 71 246 5.0 9.0 0.00 0.00 0.00 1 1012.0
20260509013016 73 260 3.0 7.0 0.00 0.00 0.00 1 1012.1
20260509011512 74 312 4.0 9.0 0.00 0.00 0.00 1 1012.3
20260509010007 74 202 3.0 8.0 0.00 0.00 0.00 1 1012.1
20260509004503 74 243 2.0 8.0 0.00 0.00 0.00 1 1012.2
20260509003108 74 203 5.0 10.0 0.00 0.00 0.00 1 1012.2
20260509001555 74 293 4.0 10.0 0.00 0.00 0.00 1 1012.2
20260509000050 74 279 3.0 12.0 0.00 0.00 0.00 1 1012.3
20260508234552 74 244 8.0 12.0 0.00 0.00 0.00 1 1012.3
20260508233041 75 308 5.0 12.0 0.00 0.00 0.00 1 1012.2
20260508231547 75 252 5.0 12.0 0.00 0.00 0.00 1 1012.4
20260508230035 75 313 6.0 14.0 0.00 0.00 0.00 1 1012.4
20260508224531 76 341 7.0 13.0 0.00 0.00 0.00 1 1012.4
20260508223036 77 247 4.0 13.0 0.00 0.00 0.00 1 1012.3
20260508221519 77 234 7.0 14.0 0.00 0.00 0.00 1 1012.6
20260508220017 78 196 7.0 15.0 0.00 0.00 0.00 1 1012.7
20260508214511 79 278 7.0 15.0 0.00 0.00 0.00 1 1012.9
20260508213006 79 196 8.0 15.0 0.00 0.00 0.00 1 1012.8
20260508211506 79 182 7.0 13.0 0.00 0.00 0.00 1 1012.8
20260508210058 79 222 5.0 12.0 0.00 0.00 0.00 1 1012.9
20260508204554 80 201 6.0 12.0 0.00 0.00 0.00 1 1012.9
20260508203104 79 197 5.0 10.0 0.00 0.00 0.00 1 1013.0
20260508201547 79 163 6.0 12.0 0.00 0.00 0.00 1 1013.1
20260508200040 79 172 5.0 10.0 0.00 0.00 0.00 1 1013.2
20260508194535 78 194 6.0 11.0 0.00 0.00 0.00 1 1013.3
20260508193039 77 231 2.0 9.0 0.00 0.00 0.00 1 1013.5